Location: Borojevi?i
(45.0486°N, 16.2297°E)
Time: 05:27:55
(UTC+00:00)

FREGAT/IRIS - Pass Details

Date: 08 August 2020
Orbit: 315 x 319 km, 96.9° (Epoch: 19 September)

Event Time Altitude Azimuth Distance (km) Brightness Sun altitude
Rises 18:49:18 0° 178° (S) 2,085 6.0 -6.7°
Reaches altitude 10° 18:51:13 10° 184° (S) 1,256 4.9 -7.0°
Maximum altitude 18:53:49 47° 260° (W) 450 3.3 -7.4°
Drops below altitude 10° 18:56:26 10° 337° (NNW) 1,269 6.1 -7.8°
Sets 18:58:23 0° 343° (NNW) 2,109 7.2 -8.1°
